Powrót do katalogu

INTELSAT 33E DEB

AktywnyMEO
NORAD 64407·DEBRIS· XX

Wystrzelony Aug 24, 2016 z Guiana Space Centre

Loading…

Następne Przeloty (najbliższe 24 godziny)

TLE

ŚwieżeSource: Space-Track

Epoka: Sep 14, 2026, 01:22 UTC

1 64407U 16053AM  26257.05722683 -.00000119  00000-0  00000-0 0  9993
2 64407   1.7156  67.2593 0332471 109.7507 254.7159  0.96109483  6519

Śledź INTELSAT 33E DEB w czasie rzeczywistym z AllMySat

Download on the App Store